Home   Weather   Angels Camp   Past weeks
Flag for USA

Past Weather in Angels Camp, California, USA — Yesterday and Last 2 Weeks

Now
63 °F

Clear.


Feels Like: 63 °F
Forecast: 87 / 54 °F
Wind: 9 mph from Northwest

Location: Modesto City-County-Sham Field

Current Time: Sep 23, 2019 at 6:42:08 am

Latest Report: Sep 23, 2019 at 5:53 am


Visibility: 10 mi

Pressure: 29.88 "Hg

Humidity: 75%

Dew Point: 55 °F

Location of Angels CampLocation

Past Weather in Angels Camp — Graph

°F

Angels Camp Temperature Yesterday

Maximum temperature yesterday: 89 °F (at 2:53 pm)
Minimum temperature yesterday: 55 °F (at 6:53 am)
Average temperature yesterday: 73 °F

High & Low Weather Summary for the Past Weeks

 TemperatureHumidityPressure
High99 °F (Sep 14, 2:53 pm)90% (Sep 8, 5:53 am)30.05 "Hg (Sep 8, 5:53 am)
Low54 °F (Sep 10, 4:53 am)13% (Sep 14, 2:53 pm)29.75 "Hg (Sep 15, 4:53 pm)
Average72 °F52%29.91 "Hg
* Reported Sep 8 4:53 am — Sep 23 4:53 am, Angels Camp. Weather by CustomWeather, © 2019

Note: Actual official high and low records may vary slightly from our data, if they occured in-between our weather recording intervals... More about our weather records

Advertising

Angels Camp Weather History for the Previous 24 Hours

Scroll right to see more
 ConditionsComfort  
Time TempWeatherWind HumidityBarometerVisibility
4:53 am
Mon, Sep 23
64 °FClear.8 mph73%29.87 "Hg10 mi
3:53 am67 °FOvercast.8 mph63%29.86 "Hg10 mi
2:53 am66 °FClear.8 mph61%29.86 "Hg10 mi
1:53 am69 °FClear.8 mph51%29.87 "Hg10 mi
12:53 am69 °FClear.7 mph51%29.86 "Hg10 mi
11:53 pm
Sun, Sep 22
71 °FClear.3 mph45%29.86 "Hg10 mi
10:53 pm75 °FClear.3 mph39%29.86 "Hg10 mi
9:53 pm76 °FClear.8 mph37%29.86 "Hg10 mi
8:53 pm78 °FClear.7 mph33%29.85 "Hg10 mi
7:53 pm79 °FClear.No wind38%29.83 "Hg10 mi
6:53 pm84 °FSunny.5 mph27%29.83 "Hg10 mi
5:53 pm87 °FSunny.8 mph23%29.83 "Hg10 mi
4:53 pm88 °FPassing clouds.3 mph21%29.83 "Hg10 mi
3:53 pm87 °FScattered clouds.10 mph24%29.84 "Hg10 mi
2:53 pm89 °FPartly sunny.3 mph22%29.85 "Hg10 mi
1:53 pm88 °FPartly sunny.3 mph22%29.86 "Hg10 mi
12:53 pm86 °FSunny.No wind25%29.88 "Hg10 mi
11:53 am82 °FSunny.No wind31%29.90 "Hg10 mi
10:53 am77 °FSunny.No wind37%29.92 "Hg10 mi
9:53 am73 °FSunny.No wind46%29.93 "Hg10 mi
8:53 am66 °FSunny.3 mph65%29.93 "Hg10 mi
7:53 am58 °FSunny.5 mph81%29.92 "Hg10 mi
6:53 am55 °FSunny.No wind87%29.90 "Hg10 mi
Weather by CustomWeather, © 2019

See weather overview